{"data":{"norad_id":36516,"intl_designator":"2010-016A","name":"SES-1","alt_names":[],"object_type":"PAYLOAD","status":"ACTIVE","operator":null,"country":"SES","launch_date":"2010-04-24","launch_site_code":"TYMSC","launch_vehicle":null,"mission":null,"orbit_class":"UNKNOWN","rcs_meters":26.9753,"size_class":null,"mass_kg":null,"dimensions":null,"purposes":["comms"],"wikipedia_slug":null,"has_3d_model":false,"image_url":null,"decayed_at":null,"tle_current":{"epoch":"2026-09-20T04:19:38.599104Z","epoch_age_seconds":42386,"freshness":"FRESH","line1":"1 36516U 10016A   26263.18030786 -.00000119  00000+0  00000+0 0  9991","line2":"2 36516   0.0466 283.7461 0002579 262.1675 137.0890  1.00272321 59989","mean_motion":1.00272321,"eccentricity":0.0002579,"inclination_deg":0.0466,"raan_deg":283.7461,"arg_perigee_deg":262.1675,"mean_anomaly_deg":137.089,"bstar":0,"rev_number":5998,"period_min":1436.0892274549,"perigee_km":35775.570455982,"apogee_km":35797.318947223,"semimajor_km":42164.581701603,"source":"CELESTRAK","updated_at":"2026-09-20T09:00:35.639017Z"}}}